カタログに戻る

BEIDOU 3 G2

運用中ナビゲーションGEO
NORAD 45344·PAYLOAD·🇨🇳 China

打ち上げ Mar 9, 2020 から Xichang Satellite Launch Center

Loading…

TLE

最新Source: Space-Track

元期: Sep 14, 2026, 22:44 UTC

1 45344U 20017A   26257.94739419 -.00000146  00000-0  00000-0 0  9990
2 45344   2.5866  48.4404 0002109 127.6146 238.9835  1.00272412 24162

AllMySatでBEIDOU 3 G2をリアルタイム追跡

Download on the App Store